This is the latest recevied weather packets stored in our database for station/object WC4PEM-15. If no packets are shown the sender has not sent any weather packets the latest 1 day(s).
| Time | Temp. | Humidity | Pressure | Rain* | Wind** | Luminosity | Snow |
|---|---|---|---|---|---|---|---|
| 1777964703 | 18.33° C | 89% | 1014.3 hPa | 0 mm | 3.13 m/s, 84° | - | - |
| 1777964403 | 18.33° C | 89% | 1014.3 hPa | 0 mm | 3.13 m/s, 104° | - | - |
| 1777964103 | 18.33° C | 89% | 1014.2 hPa | 0 mm | 2.24 m/s, 81° | - | - |
| 1777964003 | 17.78° C | 88% | 1014.7 hPa | 0 mm | 1.79 m/s, 76° | - | - |
| 1777963803 | 17.78° C | 88% | 1014.7 hPa | 0 mm | 1.79 m/s, 76° | - | - |
| 1777963611 | 18.33° C | 88% | 1014.7 hPa | 0 mm | 1.79 m/s, 68° | - | - |
| 1777963503 | 18.33° C | 88% | 1014.7 hPa | 0 mm | 1.79 m/s, 68° | - | - |
| 1777963203 | 18.33° C | 88% | 1014.6 hPa | 0 mm | 1.79 m/s, 77° | - | - |
| 1777962903 | 18.33° C | 88% | 1014.6 hPa | 0 mm | 1.79 m/s, 82° | - | - |
| 1777962645 | 18.33° C | 88% | 1014.8 hPa | 0 mm | 2.24 m/s, 66° | - | - |
| 1777962603 | 18.33° C | 88% | 1014.8 hPa | 0 mm | 2.24 m/s, 66° | - | - |
| 1777962513 | 18.33° C | 88% | 1014.7 hPa | 0 mm | 2.24 m/s, 83° | - | - |
| 1777962303 | 18.33° C | 88% | 1014.7 hPa | 0 mm | 2.24 m/s, 83° | - | - |
| 1777962107 | 18.33° C | 88% | 1014.7 hPa | 0 mm | 2.24 m/s, 78° | - | - |
| 1777962003 | 18.33° C | 88% | 1014.7 hPa | 0 mm | 2.24 m/s, 78° | - | - |
| 1777961703 | 18.33° C | 87% | 1014.8 hPa | 0 mm | 2.24 m/s, 73° | - | - |
| 1777961593 | 18.33° C | 87% | 1014.9 hPa | 0 mm | 2.24 m/s, 65° | - | - |
| 1777961403 | 18.33° C | 87% | 1014.9 hPa | 0 mm | 2.24 m/s, 65° | - | - |
| 1777961103 | 18.33° C | 87% | 1014.9 hPa | 0 mm | 2.24 m/s, 65° | - | - |
| 1777960811 | 18.33° C | 86% | 1015.1 hPa | 0 mm | 2.24 m/s, 83° | - | - |
| 1777960803 | 18.33° C | 87% | 1015.1 hPa | 0 mm | 2.24 m/s, 85° | - | - |
| 1777960503 | 18.33° C | 86% | 1015.1 hPa | 0 mm | 2.24 m/s, 83° | - | - |
| 1777960489 | 18.33° C | 86% | 1015.3 hPa | 0 mm | 1.79 m/s, 67° | - | - |
| 1777960203 | 18.33° C | 86% | 1015.3 hPa | 0 mm | 1.79 m/s, 67° | - | - |
| 1777959903 | 18.89° C | 86% | 1015.3 hPa | 0 mm | 2.24 m/s, 63° | - | - |
* Rain latest hour (hover to see other rain measurements)
** Current wind speed in m/s (hover to see current wind gust speed)